Location: Home
(42.5358°N, 72.7383°W)
Time: 13:26:51
(UTC-05:00)

A-11 Canister half - Pass Details

Date: 29 November 2021
Orbit: 1516 x 1684 km, 47.2° (Epoch: 26 January)

Event Time Altitude Azimuth Distance (km) Brightness Sun altitude
Rises 16:20:43 0° 291° (WNW) 4,939 12.3 -1.1°
Reaches altitude 10° 16:25:12 10° 274° (W) 3,948 12.2 -1.8°
Maximum altitude 16:31:24 18° 236° (SW) 3,307 12.3 -2.8°
Drops below altitude 10° 16:37:33 10° 197° (SSW) 3,905 11.8 -3.8°
Sets 16:42:00 0° 180° (S) 4,865 12.0 -4.5°
